T7RCW LFMD-LSGG

Flight info

Callsign T7RCW
Flight time N/A
Altitude 24000
Route IRMAR DCT KINES
Aircraft C25C/M-SDE2E3FGHRWXY/LB1

Departure

Time 2026-04-24 16:57
Airport Cannes Mandelieu Airport (LFMD)

Arrival

Time N/A
Airport Geneva International Airport (LSGG)
Time Latitude Longitude Altitude Speed Heading
2026-04-24 16:44 43.55329 6.95280 15 ft 0 kts 81°
2026-04-24 16:54 43.55318 6.95292 15 ft 4 kts 187°
2026-04-24 16:55 43.55289 6.95266 15 ft 6 kts 204°
2026-04-24 16:55 43.55242 6.95266 15 ft 7 kts 176°
2026-04-24 16:55 43.55216 6.95219 15 ft 7 kts 260°
2026-04-24 16:55 43.55244 6.95176 15 ft 8 kts 350°
2026-04-24 16:56 43.55299 6.95166 15 ft 8 kts 353°
2026-04-24 16:56 43.55358 6.95156 15 ft 9 kts 352°
2026-04-24 16:56 43.55410 6.95143 16 ft 5 kts 339°
2026-04-24 16:56 43.55435 6.95088 16 ft 8 kts 272°
2026-04-24 16:57 43.55426 6.95014 17 ft 7 kts 246°
2026-04-24 16:57 43.55352 6.94989 16 ft 25 kts 172°
2026-04-24 16:57 43.54844 6.95080 13 ft 127 kts 171°
2026-04-24 16:57 43.53802 6.95252 749 ft 167 kts 171°
2026-04-24 16:58 43.52681 6.95848 1407 ft 184 kts 152°
2026-04-24 16:58 43.51428 6.96686 1961 ft 210 kts 157°
2026-04-24 16:58 43.50023 6.97494 2655 ft 228 kts 157°
2026-04-24 16:58 43.48677 6.98776 3453 ft 251 kts 133°
2026-04-24 16:59 43.47520 7.00622 4600 ft 253 kts 129°
2026-04-24 16:59 43.46374 7.02494 5538 ft 259 kts 129°
2026-04-24 16:59 43.45436 7.06998 7070 ft 258 kts 71°
2026-04-24 17:00 43.46103 7.09284 8020 ft 257 kts 65°
2026-04-24 17:00 43.47627 7.13768 10011 ft 260 kts 63°
2026-04-24 17:00 43.48417 7.16014 11073 ft 262 kts 63°
2026-04-24 17:01 43.50662 7.19893 13171 ft 275 kts 23°
2026-04-24 17:01 43.52594 7.20191 14093 ft 290 kts 360°
2026-04-24 17:02 43.56698 7.18997 15562 ft 316 kts 341°
2026-04-24 17:02 43.58782 7.17854 16168 ft 330 kts 341°
2026-04-24 17:02 43.60977 7.16684 16641 ft 346 kts 341°
2026-04-24 17:02 43.63283 7.15524 17163 ft 358 kts 342°
2026-04-24 17:03 43.68001 7.13105 18817 ft 362 kts 341°
2026-04-24 17:03 43.70364 7.11880 19653 ft 363 kts 341°
2026-04-24 17:03 43.72733 7.10659 20508 ft 364 kts 341°
2026-04-24 17:04 43.75111 7.09435 21385 ft 365 kts 341°
2026-04-24 17:04 43.79894 7.06961 23105 ft 371 kts 341°
2026-04-24 17:04 43.82358 7.05690 23565 ft 385 kts 341°
2026-04-24 17:05 43.84922 7.04364 23819 ft 401 kts 341°
2026-04-24 17:05 43.87578 7.02987 23993 ft 414 kts 340°
2026-04-24 17:05 43.93080 7.00129 24083 ft 430 kts 341°
2026-04-24 17:06 43.95902 6.98664 24089 ft 434 kts 341°
2026-04-24 17:06 44.01470 6.95763 24090 ft 424 kts 341°
2026-04-24 17:06 44.04230 6.94322 24094 ft 423 kts 341°
2026-04-24 17:07 44.06054 6.93375 24094 ft 423 kts 341°
2026-04-24 17:07 44.09736 6.91450 24093 ft 422 kts 341°
2026-04-24 17:07 44.15286 6.88875 24074 ft 419 kts 354°
2026-04-24 17:08 44.22182 6.87850 24084 ft 419 kts 355°
2026-04-24 17:08 44.27974 6.86981 24088 ft 419 kts 355°
2026-04-24 17:08 44.33806 6.86101 24087 ft 423 kts 355°
2026-04-24 17:09 44.48340 6.83894 24090 ft 428 kts 355°
2026-04-24 17:09 44.72042 6.80277 24083 ft 428 kts 355°
2026-04-24 17:10 44.83887 6.78758 24086 ft 427 kts 359°
2026-04-24 17:10 45.02528 6.77573 24096 ft 427 kts 359°
2026-04-24 17:11 45.11387 6.76983 24100 ft 427 kts 359°
2026-04-24 17:12 45.26210 6.75995 24109 ft 427 kts 359°